Location: Bittelbronn
(48.4454°N, 8.5870°E)
Time: 19:11:55
(UTC+00:00)

Cosmos 1190 Rocket - Pass Details

Date: 23 May 2024
Orbit: 754 x 778 km, 74.1° (Epoch: 24 June)

Event Time Altitude Azimuth Distance (km) Brightness Sun altitude
Exits shadow 00:51:15 28° 234° (SW) 1,436 4.9 -18.1°
Maximum altitude 00:53:51 52° 298° (WNW) 957 4.5 -18.0°
Drops below altitude 10° 00:59:03 10° 15° (NNE) 2,337 7.8 -17.6°
Sets 01:01:31 0° 21° (NNE) 3,271 9.0 -17.4°
